Flag for Germany Weather past 2 weeks in Weimar, Thuringia, Germany

Now
48 °F

Passing clouds.


Feels Like: 45 °F
Forecast: 43 / 58 °F
Wind: 8 mph from Northwest

Location: Erfurt-Bindersleben

Current Time: Sep 23, 2014 at 5:28:18 AM

Latest Report: Sep 23, 2014 at 4:50 AM


Visibility: N/A

Pressure: 30.09 "Hg

Humidity: 87%

Dew point: 45 °F

Location of WeimarLocation

Historic Weather in Weimar — Graph

°F

Weimar temperature yesterday

Maximum temperature yesterday: 54 °F (at 12:50 PM)
Minimum temperature yesterday: 46 °F (at 1:20 PM)
Average temperature yesterday: 50 °F

Past Weeks' High & Low Weather Summary

 TemperatureHumidityPressure
High73 °F (Sep 16, 2:50 PM)100% (Sep 8, 4:20 AM)30.18 "Hg (Sep 8, 4:20 AM)
Low46 °F (Sep 22, 1:20 PM)50% (Sep 16, 4:20 PM)29.89 "Hg (Sep 21, 3:20 PM)
Average59 °F87%30.03 "Hg
* Reported Sep 8 4:20 AM — Sep 23 4:20 AM, Weimar, Weather by CustomWeather, © 2014

Note: Actual official high and low records may vary slightly from our data, if they occured in-between our weather recording intervals... More about our weather records

Advertising

Weimar weather history for previous 24 hours

 ConditionsComfort  
Time TempWeatherWind HumidityBarometerVisibility
4:20 AM
Sep 23
50 °FPassing clouds.13 mph82%30.09 "HgN/A
3:50 AM50 °FPassing clouds.14 mph82%30.07 "HgN/A
3:20 AM50 °FPassing clouds.15 mph76%30.07 "HgN/A
2:50 AM50 °FPassing clouds.16 mph76%30.07 "HgN/A
2:20 AM50 °FClear.16 mph76%30.07 "Hg10 mi
1:50 AM50 °FClear.14 mph76%30.07 "Hg10 mi
1:20 AM50 °FClear.15 mph76%30.07 "Hg10 mi
12:50 AM50 °FPassing clouds.16 mph76%30.07 "HgN/A
12:20 AM50 °FClear.15 mph76%30.07 "Hg10 mi
11:50 PM
Sep 22
50 °FClear.15 mph76%30.07 "Hg10 mi
11:20 PM50 °FClear.16 mph76%30.04 "Hg10 mi
10:50 PM50 °FPassing clouds.16 mph76%30.04 "HgN/A
10:20 PM50 °FPassing clouds.17 mph76%30.04 "HgN/A
9:50 PM52 °FPartly cloudy.15 mph72%30.04 "HgN/A
9:20 PM50 °FPassing clouds.13 mph82%30.04 "HgN/A
8:50 PM50 °FPartly cloudy.10 mph82%30.04 "HgN/A
8:20 PM50 °FLight rain. Passing clouds.9 mph82%30.04 "HgN/A
7:50 PM50 °FLight rain. Partly sunny.10 mph82%30.01 "HgN/A
7:20 PM50 °FLight rain. Partly sunny.13 mph82%30.01 "HgN/A
6:50 PM50 °FLight rain. Partly sunny.14 mph76%30.01 "HgN/A
6:20 PM50 °FBroken clouds.15 mph76%30.01 "HgN/A
5:50 PM52 °FScattered clouds.14 mph72%29.98 "HgN/A
5:20 PM52 °FPassing clouds.17 mph72%29.98 "HgN/A
4:50 PM52 °FPassing clouds.15 mph72%29.98 "HgN/A
4:20 PM52 °FPassing clouds.16 mph72%29.98 "HgN/A
3:50 PM50 °FPassing clouds.15 mph76%29.98 "HgN/A
3:20 PM48 °FScattered clouds.13 mph87%29.95 "HgN/A
2:50 PM46 °FPartly sunny.12 mph93%29.95 "HgN/A
2:20 PM46 °FSprinkles. Broken clouds.13 mph87%29.95 "HgN/A
1:50 PM46 °FSprinkles. Broken clouds.9 mph87%29.95 "HgN/A
1:20 PM46 °FThunderstorms. Broken clouds.22 mph82%29.95 "HgN/A
12:50 PM54 °FScattered clouds.20 mph77%29.92 "HgN/A
12:20 PM52 °FBroken clouds.18 mph82%29.95 "HgN/A
11:50 AM52 °FSprinkles. Broken clouds.18 mph82%29.95 "HgN/A
11:20 AM52 °FSprinkles. Broken clouds.15 mph82%29.95 "HgN/A
10:50 AM52 °FSprinkles. Partly sunny.16 mph82%29.95 "HgN/A
10:20 AM52 °FPartly sunny.18 mph88%29.95 "HgN/A
9:50 AM52 °FPartly sunny.17 mph82%29.95 "HgN/A
9:20 AM50 °FSprinkles. Broken clouds.14 mph94%29.95 "HgN/A
8:50 AM50 °FPartly sunny.13 mph88%29.98 "HgN/A
8:20 AM50 °FPartly sunny.12 mph88%29.98 "HgN/A
7:50 AM50 °FPassing clouds.13 mph88%29.98 "HgN/A
7:20 AM50 °FPassing clouds.13 mph94%29.98 "HgN/A
6:50 AM50 °FClear.12 mph88%29.98 "Hg10 mi
6:20 AM50 °FPassing clouds.13 mph94%29.98 "HgN/A
5:50 AM50 °FPartly cloudy.13 mph94%29.98 "HgN/A
5:20 AM50 °FPartly cloudy.10 mph94%29.98 "HgN/A
Weather by CustomWeather, © 2014

See weather overviewHow to use our weather pages